星链-5392 (STARLINK-5392 )

导读 | 豆包AI

STARLINK-5392是美国SpaceX公司星链互联网卫星星座中的一颗卫星,于2022年12月17日发射入轨,属于星链项目第二代组网卫星,承担提供全球低延迟宽带互联网服务的任务,运行在近地轨道,依托星座组网,为偏远地区、海上及空中用户覆盖高速网络接入,是星链大规模商业化部署的组成单元。

Basic Information
目录编号:
54794
目录名称:
STARLINK-5392
国际标识:
2022-175AN
轨道中心:
EARTH
卫星名称:
星链-5392
卫星全名:
星链-5392 (STARLINK-5392 )
卫星状态:
已陨落 最后检测时间 2025-04-18
发射日期:
2022-12-17 UTC
国别 :
美国 (US)
星等 :
--
Orbit Information
数据来源 国际轨道数据
星历时间: 2025-04-18T11:24:29+0800
轨道信息已过期331天
半长轴: 6585.014km
偏心率: 0.0009635
轨道倾角: 53.169°
近地点辐角 246.187°
升交点赤经 349.384°
平近点角 249.121°
近地点: 200.534km
远地点: 213.224km
周期: 88.633分钟
每日圈数: 16.246797
Detailed Information
固有亮度:
5
最大亮度:
2.5
卫星平台:
Starlink v1.5
覆盖范围:
全球
运营商:
太空探索技术公司
运营商所在国:
美国
制造商(研发单位):
太空探索技术公司
制造商所在国:
美国
使用方式:
暂无
Satellite Introduction
星链(Starlink)计划是由太空探索技术公司(SpaceX)提出的一个巨型低轨卫星互联网星座项目,计划在2019年至2024年间在太空搭建由约1.2万颗卫星组成的“星链”网络,其中1584颗将部署在地球上空550千米处的近地轨道,并从2020年开始工作。该卫星仍在工作。